Fort Drum, NY

8:58 AM EST on December 12, 2019 (GMT -0500)
Wheeler-Sack Army Air Field

Weather History for KGTB - November, 2019

Change the Weather History Date:

Friday, November 15, 2019

  Actual Average Record
Temperature  
Mean Temperature 28 °F -  
Max Temperature 36 °F 42 °F 60 °F (2005)
Min Temperature 19 °F 27 °F 12 °F (1996)
Degree Days  
Heating Degree Days 36    
Moisture  
Dew Point 26 °F    
Average Humidity 71    
Maximum Humidity 81    
Minimum Humidity 45    
Precipitation  
Precipitation 0.04 in - - ()
Snow  
Snow 0.00 in - - ()
Snow Depth 5.00 in    
Sea Level Pressure  
Sea Level Pressure 30.14 in    
Wind  
Wind Speed 12 mph (West)    
Max Wind Speed 18 mph    
Max Gust Speed 26 mph    
Visibility 10 miles    
Events Rain , Snow    
Averages and records for this station are not official NWS values.
T = Trace of Precipitation, MM = Missing Value Source: NWS Daily Summary

Daily Weather History Graph

Daily Weather History Graph

Search for Another Location

Airport or City:

Astronomy

Nov. 15, 2019 Rise Set
Actual Time 6:57 AM EST 4:36 PM EST
Civil Twilight 6:26 AM EST 5:07 PM EST
Nautical Twilight 5:51 AM EST 5:42 PM EST
Astronomical Twilight 5:17 AM EST 6:16 PM EST
Moon 7:06 PM EST (11/15) 9:55 AM EST (11/15)
Length of Visible Light 10h 41m
Length of Day
9h 39m
Waning Gibbous, 90% of the Moon is Illuminated
Nov 15
Waning Gibbous
Nov 19
Last Quarter
Nov 26
New
Dec 4
First Quarter
Dec 12
Full

Hourly Weather History & Observations

Time (EST) Temp. Windchill Dew Point Humidity Pressure Visibility Wind Dir Wind Speed Gust Speed Precip Events Conditions
12:56 AM 34.3 °F 25.0 °F 23.7 °F 65% 30.11 in 10.0 mi SW 13.8 mph - N/A   Overcast
1:56 AM 34.9 °F 26.2 °F 23.9 °F 64% 30.10 in 10.0 mi SW 12.7 mph - N/A   Overcast
2:46 AM 35.6 °F 26.2 °F 23.0 °F 60% 30.09 in 10.0 mi SW 15.0 mph 21.9 mph N/A   Overcast
2:56 AM 35.2 °F 27.1 °F 23.2 °F 62% 30.09 in 10.0 mi SW 11.5 mph 21.9 mph N/A   Overcast
3:16 AM 35.6 °F 27.5 °F 23.0 °F 60% 30.08 in 10.0 mi SW 11.5 mph - N/A   Overcast
3:56 AM 34.9 °F 25.3 °F 25.3 °F 68% 30.08 in 10.0 mi SW 15.0 mph 20.7 mph N/A   Overcast
4:56 AM 35.6 °F 26.6 °F 27.9 °F 73% 30.08 in 10.0 mi WSW 13.8 mph 26.5 mph N/A   Overcast
5:16 AM 35.6 °F 28.6 °F 28.4 °F 75% 30.08 in 10.0 mi West 9.2 mph - N/A   Overcast
5:21 AM 35.6 °F 26.6 °F 28.4 °F 75% 30.08 in 10.0 mi West 13.8 mph 23.0 mph N/A Rain Light Rain
5:22 AM 35.6 °F 26.6 °F 28.4 °F 75% 30.08 in 10.0 mi WSW 13.8 mph 23.0 mph N/A   Overcast
5:56 AM 35.8 °F 31.9 °F 28.9 °F 76% 30.08 in 10.0 mi West 4.6 mph - 0.01 in   Overcast
6:56 AM 35.8 °F 28.3 °F 28.6 °F 75% 30.09 in 10.0 mi WSW 10.4 mph 19.6 mph N/A   Overcast
7:56 AM 35.4 °F 26.8 °F 27.3 °F 72% 30.09 in 10.0 mi West 12.7 mph 19.6 mph N/A   Overcast
8:56 AM 35.6 °F 26.6 °F 28.4 °F 75% 30.09 in 10.0 mi West 13.8 mph 19.6 mph N/A   Overcast
9:37 AM 35.6 °F 26.2 °F 28.4 °F 75% 30.09 in 10.0 mi West 15.0 mph 20.7 mph N/A Rain Light Rain
9:47 AM 35.6 °F 27.1 °F 28.4 °F 75% 30.09 in 10.0 mi West 12.7 mph 20.7 mph N/A   Overcast
9:49 AM 35.6 °F 27.5 °F 28.4 °F 75% 30.09 in 10.0 mi West 11.5 mph 17.3 mph N/A Rain Light Rain
9:50 AM 35.6 °F 27.5 °F 28.4 °F 75% 30.09 in 10.0 mi WSW 11.5 mph 17.3 mph N/A   Overcast
9:51 AM 35.6 °F 27.5 °F 28.4 °F 75% 30.10 in 10.0 mi West 11.5 mph 17.3 mph N/A Rain Light Rain
9:56 AM 35.4 °F 26.8 °F 28.2 °F 75% 30.09 in 10.0 mi West 12.7 mph 17.3 mph 0.01 in Rain Light Rain
10:01 AM 35.6 °F 26.2 °F 28.4 °F 75% 30.09 in 10.0 mi West 15.0 mph 19.6 mph N/A   Overcast
10:56 AM 35.6 °F 26.6 °F 28.4 °F 75% 30.09 in 10.0 mi WSW 13.8 mph 20.7 mph 0.01 in   Overcast
11:56 AM 35.4 °F 26.0 °F 28.9 °F 77% 30.09 in 10.0 mi WSW 15.0 mph 21.9 mph 0.01 in   Overcast
12:56 PM 36.3 °F 27.1 °F 29.5 °F 76% 30.07 in 10.0 mi WSW 15.0 mph 23.0 mph N/A   Overcast
1:56 PM 36.5 °F 27.8 °F 28.9 °F 74% 30.09 in 10.0 mi WSW 13.8 mph 23.0 mph N/A   Overcast
2:55 PM - - - N/A% 30.09 in - WNW 10.4 mph - N/A Rain Light Rain
2:56 PM - - - N/A% 30.09 in - WNW 11.5 mph - N/A Rain Light Rain
3:07 PM 35.6 °F 27.5 °F 30.2 °F 81% 30.10 in 10.0 mi WNW 11.5 mph 18.4 mph N/A   Unknown
3:27 PM 35.6 °F 29.9 °F 28.4 °F 75% 30.12 in 10.0 mi WNW 6.9 mph - N/A   Overcast
3:45 PM 35.6 °F 29.2 °F 28.4 °F 75% 30.12 in 10.0 mi West 8.1 mph - N/A Rain Light Rain
3:56 PM 35.8 °F 28.8 °F 29.3 °F 77% 30.12 in 10.0 mi West 9.2 mph - 0.00 in Rain Light Rain
4:08 PM 35.6 °F 26.6 °F 30.2 °F 81% 30.12 in 10.0 mi West 13.8 mph 20.7 mph N/A   Overcast
4:38 PM 35.6 °F 28.0 °F 28.4 °F 75% 30.14 in 10.0 mi West 10.4 mph 23.0 mph N/A   Overcast
4:56 PM 36.1 °F 27.3 °F 27.7 °F 71% 30.15 in 10.0 mi West 13.8 mph 19.6 mph 0.00 in   Overcast
5:35 PM 35.6 °F 28.6 °F 26.6 °F 70% 30.19 in 10.0 mi West 9.2 mph 19.6 mph N/A Rain Light Rain
5:49 PM 35.6 °F 29.2 °F 26.6 °F 70% 30.19 in 10.0 mi West 8.1 mph 17.3 mph N/A   Overcast
5:56 PM 35.8 °F 28.3 °F 26.2 °F 68% 30.19 in 10.0 mi West 10.4 mph 18.4 mph 0.00 in   Overcast
5:57 PM 35.6 °F 28.6 °F 26.6 °F 70% 30.19 in 10.0 mi WNW 9.2 mph 18.4 mph N/A Rain Light Rain
5:58 PM 35.6 °F 27.5 °F 26.6 °F 70% 30.19 in 10.0 mi WNW 11.5 mph 18.4 mph N/A Rain Light Rain
6:22 PM 33.8 °F 27.0 °F 28.4 °F 81% 30.22 in 10.0 mi West 8.1 mph 18.4 mph N/A   Overcast
6:26 PM 33.8 °F 27.7 °F 28.4 °F 81% 30.22 in 10.0 mi WNW 6.9 mph - N/A   Overcast
6:56 PM 34.3 °F 25.9 °F 23.0 °F 63% 30.24 in 10.0 mi WNW 11.5 mph 21.9 mph 0.00 in   Overcast
7:30 PM 33.8 °F 24.8 °F 23.0 °F 65% 30.25 in 10.0 mi North 12.7 mph 18.4 mph N/A Snow Light Snow
7:43 PM 32.0 °F 22.5 °F 21.2 °F 64% 30.27 in 10.0 mi NNW 12.7 mph - N/A   Overcast
8:16 PM 30.2 °F 18.1 °F 19.4 °F 64% 30.29 in 10.0 mi NNW 18.4 mph 24.2 mph N/A   Overcast
9:56 PM 24.8 °F 12.9 °F 5.9 °F 45% 30.36 in 10.0 mi North 13.8 mph 20.7 mph N/A   Clear
10:56 PM 21.7 °F 10.8 °F 8.1 °F 56% 30.40 in 10.0 mi North 10.4 mph - N/A   Clear
11:56 PM 19.0 °F 5.6 °F 6.3 °F 58% 30.45 in 10.0 mi North 13.8 mph - N/A   Clear